Content
SEND FEEDBACK

Daily
Averages
Monthly
Summary
Turkey

ADIYAMAN, TURKEY


Home > Middle East > Turkey
Elevation: 2224 feet     Latitude: 37 48N     Longitude: 038 18E

WEATHER
 
SELECT A DAY
Number of Records: 142,206;   Date Range: 7/1/96 - 7/26/14
 
SHARE

PRINT THIS DATA

[ ← Previous Day ]
WEATHER ALMANAC - JANUARY 22, 2013
[ Next Day → ]
[ °C ]   °F
Weather ElementAverageHighLow
Temperature37 °F41 °F (10:20 am) (6:50 am)
Dewpoint35.9 °F39.2 °F (8:20 pm) (7:00 pm)
Humidity95.8 %100 % (12:50 am)81 % (10:20 am)
Barometer30.15 in30.24 in (12:50 am)30.06 in (11:20 pm)
Wind Speed4.4 mph8.1 mph (4:50 pm)
Weather ElementAverage
Visibility5.4 mi
Wind DirectionSSW (197.9 °)

Weather ElementTotal
Precipitation---
Heating Degree Days44.5 (Base 65)
Averaged from 47 records on January 22, 2013
WEATHER CONDITIONS BREAKOUT
WIND DIRECTION BREAKOUT
WEATHER BY HOUR - JANUARY 22, 2013
[ °C ]   °F
Local TimeTemperatureDewpointHumidityBarometerVisibilityWind DirectionWind SpeedGust SpeedPrecipitationEventsConditions
12:50 AM35.6 °F35.6 °F100 %30.24 in6.2 miSW (230°)3.5 mphMostly Cloudy
1:20 AM33.8 °F33.8 °F100 %30.24 in6.2 miSW (220°)4.6 mphMostly Cloudy
1:50 AM35.6 °F35.6 °F100 %30.24 in6.2 miSW (220°)5.8 mphMostly Cloudy
2:20 AM35.6 °F35.6 °F100 %30.21 in6.2 miWSW (240°)3.5 mphMostly Cloudy
2:50 AM35.6 °F35.6 °F100 %30.21 in6.2 miSW (230°)5.8 mphMostly Cloudy
3:20 AM35.6 °F35.6 °F100 %30.21 in6.2 miSW (220°)4.6 mphMostly Cloudy
3:50 AM35.6 °F35.6 °F100 %30.21 in6.2 miSW (230°)3.5 mphMostly Cloudy
4:20 AM35.6 °F35.6 °F100 %30.21 in6.2 miSSW (210°)4.6 mphMostly Cloudy
4:50 AM35.6 °F35.6 °F100 %30.21 in6.2 miSSW (210°)3.5 mphMostly Cloudy
5:20 AM35.6 °F35.6 °F100 %30.21 in6.2 miSSW (210°)4.6 mphMostly Cloudy
5:50 AM35.6 °F35.6 °F100 %30.21 in6.2 miSW (230°)4.6 mphOvercast
6:20 AM35.6 °F35.6 °F100 %30.18 in6.2 miSW (230°)3.5 mphOvercast
6:50 AM0.0 °F0.0 °F30.21 in6.2 miWSW (250°)3.5 mphOvercast
7:20 AM35.6 °F35.6 °F100 %30.21 in5.0 miVariable2.3 mphOvercast
7:50 AM37.4 °F35.6 °F93 %30.21 in5.0 miNNE (20°)3.5 mphOvercast
8:20 AM35.6 °F35.6 °F100 %30.21 in5.0 miCalmOvercast
8:50 AM35.6 °F35.6 °F100 %30.21 in5.0 miSouth (170°)3.5 mphOvercast
9:20 AM37.4 °F35.6 °F93 %30.21 in5.0 miSW (230°)4.6 mphOvercast
9:50 AM39.2 °F35.6 °F87 %30.21 in5.0 miWSW (240°)3.5 mphOvercast
10:20 AM41.0 °F35.6 °F81 %30.18 in5.0 miVariable2.3 mphOvercast
10:50 AM39.2 °F35.6 °F87 %30.18 in5.0 miNorth (10°)4.6 mphOvercast
11:20 AM39.2 °F35.6 °F87 %30.18 in5.0 miNorth (360°)5.8 mphOvercast
11:50 AM39.2 °F35.6 °F87 %30.15 in5.0 miNNE (20°)5.8 mphOvercast
12:20 PM39.2 °F35.6 °F87 %30.15 in5.0 miNE (40°)4.6 mphOvercast
12:50 PM41.0 °F37.4 °F87 %30.12 in5.0 miNNE (20°)4.6 mphOvercast
1:20 PM41.0 °F37.4 °F87 %30.12 in5.0 miNorth (350°)3.5 mphOvercast
1:50 PM41.0 °F37.4 °F87 %30.12 in4.3 miWest (260°)3.5 mphOvercast
2:20 PM41.0 °F37.4 °F87 %30.12 in4.3 miVariable2.3 mphOvercast
2:50 PM39.2 °F37.4 °F93 %30.12 in4.3 miSW (220°)4.6 mphOvercast
3:20 PM39.2 °F37.4 °F93 %30.12 in5.0 miSW (220°)5.8 mphOvercast
3:50 PM39.2 °F37.4 °F93 %30.09 in4.3 miSSW (210°)3.5 mphRainLight Rain
4:20 PM37.4 °F37.4 °F100 %30.09 in5.0 miSW (220°)6.9 mphOvercast
4:50 PM37.4 °F37.4 °F100 %30.09 in5.0 miSSW (210°)8.1 mphOvercast
5:20 PM37.4 °F37.4 °F100 %30.09 in5.0 miSW (220°)5.8 mphOvercast
5:50 PM37.4 °F37.4 °F100 %30.09 in5.0 miSW (220°)4.6 mphOvercast
6:20 PM37.4 °F37.4 °F100 %30.09 in6.2 miVariable2.3 mphMostly Cloudy
6:50 PM37.4 °F37.4 °F100 %30.09 in4.3 miSSE (160°)4.6 mphRainLight Rain
7:20 PM37.4 °F35.6 °F93 %30.09 in4.3 miVariable2.3 mphRainLight Rain
7:50 PM37.4 °F35.6 °F93 %30.09 in6.2 miSW (230°)4.6 mphRainLight Rain
8:20 PM39.2 °F39.2 °F100 %30.09 in6.2 miNorth (350°)4.6 mphRainLight Rain
8:50 PM39.2 °F37.4 °F93 %30.09 in4.3 miNorth (360°)4.6 mphRainLight Rain
9:20 PM39.2 °F39.2 °F100 %30.09 in6.2 miNNW (330°)5.8 mphMostly Cloudy
9:50 PM39.2 °F39.2 °F100 %30.09 in6.2 miNNW (330°)6.9 mphMostly Cloudy
10:20 PM39.2 °F39.2 °F100 %30.09 in6.2 miNorth (350°)4.6 mphMostly Cloudy
10:50 PM39.2 °F39.2 °F100 %30.09 in6.2 miNorth (350°)5.8 mphMostly Cloudy
11:20 PM39.2 °F39.2 °F100 %30.06 in6.2 miNorth (360°)4.6 mphMostly Cloudy
11:50 PM39.2 °F39.2 °F100 %30.06 in5.0 miNW (310°)4.6 mphMostly Cloudy
Hourly data recorded from LTCP, located miles away from Adiyaman, Turkey







STORIES FROM OUR PARTNERS